Location: İstanbul
(41.0082°N, 28.9784°E)
Time: 21:29:51
(UTC+03:00)

CAS-6 - Pass Details

Date: 26 April 2024
Orbit: 607 x 628 km, 97.8° (Epoch: 29 May)

Event Time Altitude Azimuth Distance (km) Brightness Sun altitude
Exits shadow 22:04:15 15° 57° (ENE) 1,694 ? -21.5°
Drops below altitude 10° 22:06:12 10° 30° (NNE) 1,986 ? -21.8°
Sets 22:09:12 0° 7° (N) 2,892 ? -22.2°
